Location: Alafon
(8.4500°N, 4.2333°E)
Time: 00:49:51
(UTC+00:00)

Cosmos 2322 - Visible Passes

Search period start: 24 October 2020 00:00
Search period end: 03 November 2020 00:00
Orbit: 841 x 854 km, 71.0° (Epoch: 23 October)

Date Brightness Start Highest point End Pass type
(mag) Time Alt. Az. Time Alt. Az. Time Alt. Az.
31 Oct 5.7 19:33:29 10° S 19:34:45 17° S 19:34:45 17° S visible
01 Nov 5.1 19:20:13 10° S 19:22:49 28° S 19:22:49 28° S visible
02 Nov 4.2 19:06:57 10° S 19:10:59 44° SSE 19:10:59 44° SSE visible
